Regional Weather Roundup
Issued by NWS Albany, NY

Home | Current Version | Previous Version | Text Only | Print | Product List | Glossary On
Versions: 1 2 3 4 5 6 7 8 9 10 11 12 13 14 15 16 17 18 19 20 21 22 23 24 25 26 27 28 29 30 31 32 33 34 35 36 37 38 39 40 41 42 43 44 45 46 47 48 49 50
000
ASUS41 KALY 030910
RWRALY

NEW YORK STATE HOURLY WEATHER ROUNDUP
NATIONAL WEATHER SERVICE ALBANY NY
400 AM EST TUE MAR 03 2015

NOTE: "FAIR" INDICATES FEW OR NO CLOUDS BELOW 12,000 FEET WITH NO
SIGNIFICANT WEATHER AND/OR NO OBSTRUCTIONS TO VISIBILITY.

NYZ032-033-038>043-046>054-057>066-NYZ062>081-031000-
EAST


CITY           SKY/WX    TMP DP  RH WIND       PRES   REMARKS
ALBANY         CLEAR     16   4  59 NW6       30.37R WCI   7
GLENS FALLS    CLEAR      8  -1  66 CALM      30.35R
POUGHKEEPSIE   CLEAR      6   0  76 E3        30.39R
NEWBURGH       CLEAR     10   5  79 CALM      30.36R
MONTGOMERY     CLEAR      8   2  76 CALM      30.35R
WHITE PLAINS   CLEAR     15   7  70 W3        30.35R
NEW YORK CITY  CLEAR     26  11  52 NW8       30.39R WCI  18
CENTRAL PARK   CLEAR     25   8  48 NW6       30.40S WCI  18
$$

NYZ005>009-017-018-044>046-055-056-031000-
CENTRAL


CITY           SKY/WX    TMP DP  RH WIND       PRES   REMARKS
FULTON         CLEAR      3  -2  79 CALM      30.35F
SYRACUSE       PTCLDY     4   4 100 CALM      30.35F
ROME           PTCLDY    -4  -5  95 CALM      30.38F
ELMIRA         PTCLDY     8   5  87 W7        30.36R WCI  -3
BINGHAMTON     CLEAR     13   8  81 NW3       30.27F
MONTICELLO     CLEAR     10   7  85 CALM      30.30F
$$

NYZ026>034-041>043-031000-
NORTH


CITY           SKY/WX    TMP DP  RH WIND       PRES   REMARKS
WATERTOWN      PTCLDY    -2  -7  79 CALM      30.36F
FORT DRUM      NOT AVBL
MASSENA        PTCLDY    -6 -11  79 CALM      30.38S
SARANAC LAKE   CLEAR    -14 -19  79 CALM      30.23R
PLATTSBURGH    CLEAR      2  -4  76 CALM      30.35S
$$

NYZ001>004-010>016-019>021-031000-
WEST


CITY           SKY/WX    TMP DP  RH WIND       PRES   REMARKS
NIAGARA FALLS  PTCLDY     7   4  87 CALM      30.35F FOG
BUFFALO        PTCLDY     6   2  83 SE6       30.34F WCI  -4
DUNKIRK        MOCLDY     5   2  87 CALM      30.33F
JAMESTOWN      MOCLDY     9   5  85 S6        30.25F WCI  -1
WELLSVILLE     MOCLDY     7   4  87 SE3       30.26R
ROCHESTER      PTCLDY     7   3  84 SW7       30.36S WCI  -5
PENN YAN       PTCLDY    12   6  77 S8        30.33R WCI   0
$$

             KEY
       WCI = WIND CHILL INDEX
       VSB = VISIBILITY
       HX  = HEAT INDEX
$$



USA.gov is the U.S. government's official web portal to all federal, state and local government web resources and services.